Regional Weather Roundup
Issued by NWS

Home | Current Version | Previous Version | Text Only | Print | Product List | Glossary Off
Versions: 1 2 3 4 5 6 7 8 9 10 11 12 13 14 15 16 17 18 19 20 21 22 23 24 25 26 27 28 29 30 31 32 33 34 35 36 37 38 39 40 41 42 43 44 45 46 47 48 49 50

000
ASUS43 KMKX 170911
RWRWI

WISCONSIN REGIONAL WEATHER ROUNDUP
NATIONAL WEATHER SERVICE MILWAUKEE/SULLIVAN WI
400 AM CDT THU APR 17 2014

NOTE: "FAIR" INDICATES FEW OR NO CLOUDS BELOW 12,000 FEET WITH NO
SIGNIFICANT WEATHER AND/OR OBSTRUCTIONS TO VISIBILITY.

WIZ001-002-006>008-014>016-023>028-171000-
NORTHWEST WISCONSIN

CITY           SKY/WX    TMP DP  RH WIND       PRES   REMARKS
SUPERIOR ARPT  LGT SNOW  30  29  96 NE14G20   30.13F WCI  19
ASHLAND        LGT SNOW  28  28 100 NE15      30.09F VSB 3/4 WCI  16
HAYWARD        LGT SNOW  29  27  92 NE6       30.03R VSB 1   WCI  23
SIREN          MIX PCPN  29  27  93 N12G18    30.05R WCI  19
RICE LAKE      LGT SNOW  33  32  96 N8        30.00R WCI  26
LADYSMITH      LGT SNOW  34  33  96 E7        30.00S WCI  28
EAU CLAIRE     LGT RAIN  38  36  92 NE8       29.94R WCI  32
MENOMONIE      RAIN      37  37  98 NE8       29.94S WCI  31
NEW RICHMOND   CLOUDY    30  30  99 N13       30.01R WCI  20
OSCEOLA        MIX PCPN  30  29  96 N9        30.05R WCI  21
$$

WIZ003>005-009-010-017-018-171000-
NORTH CENTRAL WISCONSIN

CITY           SKY/WX    TMP DP  RH WIND       PRES   REMARKS
WOODRUFF       LGT SNOW  32  30  92 SE13      30.03S VSB 3/4 WCI  22
RHINELANDER    LGT SNOW  30  29  96 E14       30.04F VSB 1   WCI  19
EAGLE RIVER    SNOW      30  30  99 SE14G20   30.04F VSB 1/2 WCI  20
LAND O LAKES   LGT SNOW  30  29  96 SE10G21   30.06F VSB 3/4 WCI  21
PHILLIPS       LGT SNOW  31  30  96 E7        30.00S VSB 1   WCI  24
TOMAHAWK       LGT SNOW  32  30  93 CALM      30.02S
MEDFORD        LGT SNOW  32  32  97 E10G18    29.98R WCI  24
MERRILL        CLOUDY    33  31  96 CALM      30.01S
$$

WIZ029-030-035-036-043>047-171000-
CENTRAL WISCONSIN

CITY           SKY/WX    TMP DP  RH WIND       PRES   REMARKS
WAUSAU         CLOUDY    34  31  88 SE17      29.99S WCI  23
MOSINEE        CLOUDY    34  32  93 E10G20    30.00S WCI  26
MARSHFIELD     CLOUDY    38  30  73 SE8       29.96S WCI  32
STEVENS POINT  CLOUDY    36  28  75 E9        30.00S WCI  29
WAUPACA        CLOUDY    41  30  65 SE15G23   30.03F
WAUTOMA        CLOUDY    42  28  58 SE10      30.01F
WISC RAPIDS    CLOUDY    41  28  60 SE9       29.98F
CAMP DOUGLAS   CLOUDY    44  31  61 SE12      29.93F
$$

WIZ011>013-019>022-031-037>040-048>050-171000-
NORTHEAST WISCONSIN

CITY           SKY/WX    TMP DP  RH WIND       PRES   REMARKS
ANTIGO         LGT SNOW  31  30  97 E24       30.03F WCI  17
STURGEON BAY   CLOUDY    37  27  65 SE17G25   30.17F WCI  28
GREEN BAY      LGT SNOW  36  32  85 SE26G36   30.13S FOG     WCI  24
MANITOWOC      CLOUDY    37  31  78 SE13G21   30.16F WCI  29
APPLETON       CLOUDY    36  32  87 SE20      30.06F WCI  25
CLINTONVILLE   CLOUDY    36  32  87 SE12G17   30.07F WCI  27
OSHKOSH        CLOUDY    39  29  67 SE17      30.04F WCI  30
$$

WIZ032>034-041-042-053>061-171000-
SOUTHWEST WISCONSIN

CITY           SKY/WX    TMP DP  RH WIND       PRES   REMARKS
LA CROSSE      CLOUDY    49  29  46 S13       29.87S
SPARTA         CLOUDY    46  29  50 SE13      29.91R
VIROQUA        CLOUDY    44  29  55 S12G18    29.89S
BOSCOBEL       MOCLDY    48  28  46 S12G20    29.93F
PRAIRIE DU CHI CLOUDY    47  33  58 S13       29.92S
PLATTEVILLE    FAIR      43  30  59 S16       29.97R
$$

WIZ056-057-062-063-064-067-068-171000-
SOUTH CENTRAL WISCONSIN

CITY           SKY/WX    TMP DP  RH WIND       PRES   REMARKS
BARABOO/DELLS  CLOUDY    43  28  56 SE20G26   29.96S
LONE ROCK      CLOUDY    45  30  55 S12G22    29.95F
WATERTOWN      CLOUDY    42  27  55 SE10G20   30.04F
MADISON        CLOUDY    45  28  51 S15G25    30.00F
MIDDLETON      PTSUNNY   45  27  50 S15G25    30.00R
MONROE         MOCLDY    40  30  66 S15       30.00S WCI  32
JANESVILLE     CLOUDY    45  27  49 S17G25    30.03F
$$

WIZ051-052-058>065-066-070>072-171000-
SOUTHEAST WISCONSIN

CITY           SKY/WX    TMP DP  RH WIND       PRES   REMARKS
MILWAUKEE      CLOUDY    40  30  67 SE16      30.12F WCI  31
WAUKESHA       CLOUDY    37  28  70 SE12G18   30.10S WCI  30
MILWAUKEE/TIMM CLOUDY    39  28  65 SE12      30.12F WCI  32
RACINE         CLOUDY    40  29  64 SE16G26   30.14F WCI  31
BURLINGTON     CLOUDY    41  26  54 S12       30.09F
KENOSHA        CLOUDY    41  30  65 SE14      30.11F
FOND DU LAC    CLOUDY    40  28  62 SE21G30   30.05F WCI  30
SHEBOYGAN      CLOUDY    37  29  72 SE13G23   30.15S WCI  29
WEST BEND      CLOUDY    37  28  70 SE15G22   30.10F WCI  28
JUNEAU         CLOUDY    41  25  52 SE18      30.04F
$$

LSZ147-162-171000-
LAKE SUPERIOR

STATION/POSITION TIME  TEMP    WIND        PRES    WAVE
                       AIR SEA DIR/SP/G            HT/PER
                 (UTC) (F)     (DEG/KT/KT) (MB)    (FT/S)
DEVILS ISLAND    0800   30      60/ 32/ 39 1021.5F
PORT WING        0800   29      50/ 21     1020.0S
SAXON HARBOR     0800           50/ 12/ 14 1019.0F
$$

LMZ867-665-643>646-171000-
LAKE MICHIGAN

STATION/POSITION TIME  TEMP    WIND        PRES    WAVE
                       AIR SEA DIR/SP/G            HT/PER
                 (UTC) (F)     (DEG/KT/KT) (MB)    (FT/S)
NORTHPORT PIER   0800   35     130/ 12/ 14 1023.4F
SISTER BAY       0823   37     130/ 16/ 22   N/A
SHEBOYGAN LAKESH 0900   38     140/ 23/ 26 1021.2F
PORT WASHINGTON  0840   38     150/  9/ 15 1021.3S
MILWAUKEE LAKESH 0800   39     150/ 14/ 17   N/A
KENOSHA   LAKESH 0900   39     150/ 21/ 23   N/A
$$

TC  - TEMPERATURE IN CELSIUS
VSB - VISIBILITY IN STATUTE MILES
WCI - WIND CHILL INDEX
HX  - HEAT INDEX




USA.gov is the U.S. government's official web portal to all federal, state and local government web resources and services.